Location: Forestville
(38.4740°N, 122.8890°W)
Time: 01:27:09
(UTC-07:00)

Amateur Radio Satellites - All Passes

Search period start: 05 August 2015 00:57
Search period end: 06 August 2015 00:57
Location: Forestville, 38.4740°N, 122.8890°W

Satellite Date Start Highest point End Downlink Frequencies (MHz)
Time Altitude Azimuth
SWISSCUBE 05 Aug 00:57:23 01:00:11 16° 65° (ENE) 01:03:10 437.505
CUBEBUG 1 05 Aug 00:58:17 01:01:16 17° 268° (W) 01:04:05 437.445
RS-15 05 Aug 00:58:25 01:06:23 21° 341° (NNW) 01:14:19 29.354- 29.394
YUBILEINY 05 Aug 01:02:00 01:10:42 75° 279° (W) 01:19:30 435.215
QB50P2 05 Aug 01:03:46 01:07:40 35° 288° (WNW) 01:11:32 145.880/145.840
TISAT 1 05 Aug 01:10:14 01:14:24 69° 258° (WSW) 01:18:34 437.305
Cosmos 2504 05 Aug 01:11:47 01:13:29 11° 77° (ENE) 01:15:49 435.465 / 435.565
PHONESAT 2.4 05 Aug 01:14:53 01:16:16 12° 216° (SW) 01:17:31 2401.200-2431.200
SPROUT 05 Aug 01:16:06 01:20:02 35° 263° (W) 01:23:58 437.525
AIST 2 05 Aug 01:17:59 01:21:25 23° 312° (NW) 01:24:49 435.215
ITUPSAT 1 05 Aug 01:19:27 01:23:12 24° 68° (ENE) 01:27:05 437.325
DUCHIFAT 1 05 Aug 01:23:42 01:27:06 23° 290° (WNW) 01:30:24 145.980
NANOSAT C BR1 05 Aug 01:30:03 01:33:09 19° 291° (WNW) 01:36:10 145.865
QB50P1 05 Aug 01:30:41 01:33:45 19° 292° (WNW) 01:36:42 145.935-145.965
ISS 05 Aug 02:04:18 02:07:15 31° 31° (NNE) 02:10:13 145.825
BEESAT 05 Aug 02:11:33 02:16:20 83° 76° (ENE) 02:21:09 436.000
BUGSAT 1 05 Aug 02:14:12 02:14:47 10° 295° (WNW) 02:15:08 437.445
ITAMSAT 1 05 Aug 02:19:45 02:20:25 10° 87° (E) 02:21:28 435.822/435.867
Gurwin Techsat 1B 05 Aug 02:21:29 02:24:04 14° 89° (E) 02:26:57 435.225
O/OREOS (USA 219) 05 Aug 02:24:29 02:27:53 20° 303° (WNW) 02:31:13 437.305
Oscar 19 05 Aug 02:24:41 02:29:45 53° 100° (E) 02:34:50 437.125/150
SWISSCUBE 05 Aug 02:32:57 02:37:39 53° 260° (W) 02:42:21 437.505
STARS 05 Aug 02:52:42 02:55:55 21° 68° (ENE) 02:59:15 437.465
JAS-2 05 Aug 02:55:10 02:59:55 18° 86° (E) 03:04:59 435.910
ITUPSAT 1 05 Aug 02:56:33 03:00:56 34° 263° (W) 03:05:18 437.325
Cosmos 2504 05 Aug 02:57:15 03:04:24 79° 95° (E) 03:12:09 435.465 / 435.565
YUBILEINY 05 Aug 03:05:05 03:09:27 14° 302° (WNW) 03:13:12 435.215
RS-15 05 Aug 03:17:07 03:24:47 20° 17° (NNE) 03:32:57 29.354- 29.394
KKS-1 05 Aug 03:29:21 03:33:47 88° 249° (WSW) 03:38:15 437.445
ISS 05 Aug 03:40:50 03:43:37 26° 227° (SW) 03:46:22 145.825
ITAMSAT 1 05 Aug 03:55:27 04:00:40 81° 285° (WNW) 04:05:50 435.822/435.867
Gurwin Techsat 1B 05 Aug 03:59:20 04:04:37 66° 286° (WNW) 04:09:52 435.225
JUGNU 05 Aug 04:01:27 04:03:41 12° 181° (S) 04:05:54 437.505
Oscar 19 05 Aug 04:05:11 04:08:44 18° 295° (WNW) 04:12:06 437.125/150
SRMSAT 05 Aug 04:14:58 04:15:48 10° 172° (S) 04:16:41 437.500
CUSAT 1 05 Aug 04:26:33 04:29:17 67° 281° (W) 04:31:51 437.405
STARS 05 Aug 04:28:14 04:32:11 32° 263° (W) 04:36:06 437.465
HORYU 2 05 Aug 04:29:20 04:33:12 28° 96° (E) 04:37:08 437.375
JAS-2 05 Aug 04:38:01 04:45:58 86° 282° (WNW) 04:53:33 435.910
DANDE 05 Aug 04:38:31 04:41:34 89° 75° (ENE) 04:44:13 436.750
AO-7 05 Aug 04:46:33 04:54:31 49° 100° (E) 05:02:29 29.400- 29.500
MOZHAYETS 4 05 Aug 04:52:04 04:56:42 83° 77° (ENE) 05:01:23
Cosmos 2504 05 Aug 04:52:56 04:57:48 18° 297° (WNW) 05:02:29 435.465 / 435.565
CUBESAT XI-V 05 Aug 05:23:57 05:26:30 15° 66° (ENE) 05:29:14 437.345
RS-15 05 Aug 05:29:59 05:41:13 49° 47° (NE) 05:52:57 29.354- 29.394
GONETS M04 05 Aug 05:44:37 05:52:49 50° 90° (E) 06:01:06
SRMSAT 05 Aug 06:01:59 06:04:05 12° 182° (S) 06:06:10 437.500
STRAND 1 05 Aug 06:05:19 06:07:51 14° 63° (ENE) 06:10:38 437.568
HORYU 2 05 Aug 06:06:01 06:09:45 25° 291° (WNW) 06:13:22 437.375
Cosmos 2499 05 Aug 06:17:55 06:21:36 15° 79° (E) 06:25:55 435.465 / 435.565
JAS-2 05 Aug 06:24:52 06:29:59 18° 301° (WNW) 06:34:42 435.910
BEESAT 3 05 Aug 06:32:35 06:34:00 12° 42° (NE) 06:35:36 437.485
AO-7 05 Aug 06:39:40 06:47:09 37° 298° (WNW) 06:54:27 29.400- 29.500
Cubesat XI-IV 05 Aug 06:41:51 06:46:08 25° 94° (E) 06:50:31 437.490
CUBESAT XI-V 05 Aug 06:58:58 07:03:33 53° 261° (W) 07:08:07 437.345
PCSat 05 Aug 07:15:06 07:17:07 12° 104° (ESE) 07:19:29 145.827
CUTE-I 05 Aug 07:35:36 07:40:57 82° 103° (ESE) 07:46:16 437.470
BEESAT 2 05 Aug 07:35:37 07:39:22 35° 53° (NE) 07:43:04 435.950
BRITE-PL 05 Aug 07:38:55 07:39:59 11° 90° (E) 07:41:23 437.365/2234.400
SO-50 05 Aug 07:39:53 07:42:59 18° 110° (ESE) 07:46:20 436.795
PRISM 05 Aug 07:41:10 07:45:21 77° 259° (WSW) 07:49:32 437.425
STRAND 1 05 Aug 07:41:26 07:46:33 69° 258° (WSW) 07:51:41 437.568
GONETS M04 05 Aug 07:42:13 07:49:58 34° 289° (WNW) 07:57:34
RS-15 05 Aug 07:42:35 07:53:57 53° 248° (WSW) 08:05:31 29.354- 29.394
AIST 2 05 Aug 08:02:28 08:05:14 17° 45° (NE) 08:08:04 435.215
Cosmos 2499 05 Aug 08:06:08 08:13:36 88° 277° (W) 08:21:46 435.465 / 435.565
BEESAT 3 05 Aug 08:08:29 08:12:31 77° 241° (WSW) 08:16:29 437.485
Cubesat XI-IV 05 Aug 08:21:27 08:26:22 38° 290° (WNW) 08:31:12 437.490
DOVE 4 05 Aug 08:28:40 08:31:12 15° 91° (E) 08:34:02 437.250
CUTE 1.7 + AOD 2 05 Aug 08:43:00 08:44:57 13° 90° (E) 08:47:07 437.475
AUBIESAT-1 05 Aug 08:45:55 08:48:03 14° 59° (ENE) 08:50:26 437.475
CANX-2 05 Aug 08:51:17 08:54:16 19° 92° (E) 08:57:22 2200.000
PCSat 05 Aug 08:54:32 08:59:56 78° 298° (WNW) 09:05:24 145.827
GOMX 1 05 Aug 09:01:17 09:05:52 52° 99° (E) 09:10:46 467.674
HO-68 05 Aug 09:08:46 09:15:15 37° 97° (E) 09:21:50 435.675
BEESAT 2 05 Aug 09:14:16 09:17:11 19° 248° (WSW) 09:19:58 435.950
BRITE-PL 05 Aug 09:14:25 09:18:55 68° 285° (WNW) 09:23:48 437.365/2234.400
CUTE-I 05 Aug 09:18:03 09:20:24 13° 298° (WNW) 09:22:28 437.470
SO-50 05 Aug 09:18:32 09:23:10 50° 306° (NW) 09:27:57 436.795
CINEMA 3 05 Aug 09:39:33 09:43:58 36° 97° (E) 09:48:32 145.822/145.860
CUBEBUG 2 05 Aug 09:40:02 09:42:54 16° 91° (E) 09:46:01 437.445
AIST 2 05 Aug 09:40:04 09:44:06 48° 244° (WSW) 09:48:03 435.215
COMPASS 1 05 Aug 09:43:32 09:47:31 41° 98° (E) 09:51:29 437.405
M-CUBED/EXP-1 PRIME 05 Aug 09:53:21 09:57:29 86° 72° (ENE) 10:02:00 437.505
TIGRISAT 05 Aug 10:01:11 10:04:12 19° 68° (ENE) 10:07:26 435.000
Cosmos 2499 05 Aug 10:03:50 10:08:21 15° 300° (WNW) 10:12:31 435.465 / 435.565
DOVE 4 05 Aug 10:04:36 10:09:16 56° 285° (WNW) 10:14:11 437.250
ANTELSAT 05 Aug 10:04:46 10:08:04 22° 68° (ENE) 10:11:33 437.575/2403.000
SEEDS 05 Aug 10:06:18 10:10:34 81° 283° (WNW) 10:14:47 437.485
ZACube-1 05 Aug 10:15:35 10:19:11 23° 93° (E) 10:22:54 437.345
CUTE 1.7 + AOD 2 05 Aug 10:17:03 10:21:12 48° 286° (WNW) 10:25:18 437.475
AUBIESAT-1 05 Aug 10:18:08 10:22:13 58° 256° (WSW) 10:26:39 437.475
AAUSAT CUBESAT 2 05 Aug 10:20:35 10:24:48 84° 285° (WNW) 10:28:58 437.432
QB50P2 05 Aug 10:21:49 10:23:22 12° 66° (ENE) 10:25:08 145.880/145.840
HUMSAT D 05 Aug 10:25:39 10:26:05 10° 88° (E) 10:26:50 437.325/437.525
CANX-2 05 Aug 10:26:25 10:30:19 34° 288° (WNW) 10:34:08 2200.000
FUNcube-1 05 Aug 10:34:38 10:38:50 36° 97° (E) 10:43:04 145.935
Oscar 11 05 Aug 10:39:01 10:43:21 66° 101° (E) 10:47:40 145.826/435.025
DUCHIFAT 1 05 Aug 10:39:30 10:42:15 18° 68° (ENE) 10:45:08 145.980
GOMX 1 05 Aug 10:40:45 10:43:43 16° 292° (WNW) 10:46:35 467.674
PCSat 05 Aug 10:41:48 10:44:22 13° 319° (NW) 10:46:42 145.827
NANOSAT C BR1 05 Aug 10:45:21 10:48:28 21° 69° (ENE) 10:51:42 145.865
QB50P1 05 Aug 10:46:03 10:49:15 22° 69° (ENE) 10:52:32 145.935-145.965
UWE-3 05 Aug 10:49:31 10:54:11 72° 102° (ESE) 10:58:52 435.000/436.395/437.385
UNISAT 6 05 Aug 10:54:55 10:59:17 78° 76° (ENE) 11:03:47 437.425
O/OREOS (USA 219) 05 Aug 10:55:11 10:59:42 56° 66° (ENE) 11:04:14 437.305
HO-68 05 Aug 10:56:23 11:03:02 41° 294° (WNW) 11:09:35 435.675
DELFI C3 05 Aug 11:08:12 11:12:16 82° 284° (WNW) 11:16:17 145.870
AISAT 05 Aug 11:13:06 11:15:28 15° 91° (E) 11:18:02 437.250
YUBILEINY 05 Aug 11:14:03 11:22:36 52° 76° (ENE) 11:31:10 435.215
CUBEBUG 2 05 Aug 11:15:20 11:19:51 47° 286° (WNW) 11:24:24 437.445
DX 1 05 Aug 11:16:57 11:20:35 26° 96° (E) 11:24:16 434.975-435.025
CINEMA 3 05 Aug 11:17:09 11:20:59 24° 291° (WNW) 11:24:48 145.822/145.860
COMPASS 1 05 Aug 11:20:15 11:22:52 16° 292° (WNW) 11:25:19 437.405
BUGSAT 1 05 Aug 11:24:29 11:28:09 35° 72° (ENE) 11:31:50 437.445
POLYITAN 1 05 Aug 11:30:36 11:34:47 74° 77° (ENE) 11:39:00 437.675
AIST 1 05 Aug 11:35:20 11:39:17 35° 92° (E) 11:43:15
TIGRISAT 05 Aug 11:36:39 11:40:43 36° 263° (W) 11:44:50 435.000
ANTELSAT 05 Aug 11:40:44 11:44:41 32° 264° (W) 11:48:41 437.575/2403.000
POPSAT HIP 1 05 Aug 11:45:39 11:49:50 75° 257° (WSW) 11:54:04 437.405
Cosmos 2491 05 Aug 11:47:53 11:55:57 45° 89° (E) 12:04:08 435.465 / 435.565
VELOX 1 05 Aug 11:49:17 11:53:20 35° 97° (E) 11:57:25 145.980
ZACube-1 05 Aug 11:51:29 11:55:35 32° 289° (WNW) 11:59:37 437.345
QB50P2 05 Aug 11:54:42 11:58:49 55° 259° (W) 12:02:59 145.880/145.840
HUMSAT D 05 Aug 11:58:00 12:02:18 63° 285° (WNW) 12:06:35 437.325/437.525
50 SAT 05 Aug 12:04:28 12:08:27 69° 101° (E) 12:12:23 437.505
FUNcube-1 05 Aug 12:11:28 12:14:56 21° 291° (WNW) 12:18:18 145.935
DUCHIFAT 1 05 Aug 12:13:58 12:17:49 35° 263° (W) 12:21:39 145.980
UKube-1 05 Aug 12:16:48 12:21:07 69° 285° (WNW) 12:25:23 .
Oscar 11 05 Aug 12:17:43 12:19:01 11° 295° (WNW) 12:20:06 145.826/435.025
ESTCUBE 1 05 Aug 12:20:04 12:24:29 56° 100° (E) 12:28:53 437.505/2401.250
NANOSAT C BR1 05 Aug 12:20:28 12:24:09 29° 264° (W) 12:27:48 145.865
QB50P1 05 Aug 12:21:20 12:24:59 28° 264° (W) 12:28:36 145.935-145.965
UWE-3 05 Aug 12:28:27 12:30:11 12° 295° (WNW) 12:31:39 435.000/436.395/437.385
O/OREOS (USA 219) 05 Aug 12:36:35 12:38:42 13° 260° (W) 12:40:34 437.305
Cosmos 2504 05 Aug 12:45:19 12:51:56 25° 67° (ENE) 12:58:54 435.465 / 435.565
CUBEBUG 1 05 Aug 12:46:41 12:51:03 86° 283° (WNW) 12:55:23 437.445
AISAT 05 Aug 12:48:05 12:52:20 46° 287° (WNW) 12:56:34 437.250
DX 1 05 Aug 12:53:10 12:56:45 25° 291° (WNW) 13:00:17 434.975-435.025
TISAT 1 05 Aug 12:56:48 12:59:52 20° 93° (E) 13:03:03 437.305
BUGSAT 1 05 Aug 13:01:12 13:03:46 16° 268° (W) 13:06:11 437.445
SPROUT 05 Aug 13:03:47 13:07:51 41° 98° (E) 13:11:57 437.525
YUBILEINY 05 Aug 13:11:30 13:19:07 33° 274° (W) 13:26:29 435.215
AIST 1 05 Aug 13:14:11 13:17:06 17° 288° (WNW) 13:19:53
VELOX 1 05 Aug 13:26:26 13:29:40 20° 292° (WNW) 13:32:47 145.980
ITAMSAT 1 05 Aug 13:35:07 13:38:06 16° 64° (ENE) 13:41:19 435.822/435.867
Oscar 19 05 Aug 13:40:02 13:45:05 67° 74° (ENE) 13:50:12 437.125/150
Gurwin Techsat 1B 05 Aug 13:40:49 13:44:37 21° 66° (ENE) 13:48:34 435.225
Cosmos 2491 05 Aug 13:44:56 13:52:59 38° 288° (WNW) 14:00:52 435.465 / 435.565
AO-7 05 Aug 13:57:48 14:00:28 12° 48° (NE) 14:03:39 29.400- 29.500
ESTCUBE 1 05 Aug 13:58:40 14:00:55 13° 295° (WNW) 14:02:58 437.505/2401.250
BEESAT 05 Aug 14:13:56 14:17:42 24° 94° (E) 14:21:34 436.000
TISAT 1 05 Aug 14:31:57 14:35:42 31° 289° (WNW) 14:39:24 437.305
SWISSCUBE 05 Aug 14:34:44 14:39:16 43° 99° (E) 14:43:46 437.505
Cosmos 2504 05 Aug 14:36:25 14:44:54 68° 267° (W) 14:53:23 435.465 / 435.565
SPROUT 05 Aug 14:40:52 14:43:38 16° 293° (WNW) 14:46:15 437.525
JAS-2 05 Aug 14:48:30 14:54:10 37° 66° (ENE) 15:00:36 435.910
ITUPSAT 1 05 Aug 14:58:03 15:02:49 68° 102° (ESE) 15:07:33 437.325
CUSAT 1 05 Aug 14:59:54 15:04:38 63° 80° (E) 15:10:56 437.405
ITAMSAT 1 05 Aug 15:11:59 15:17:09 62° 259° (WSW) 15:22:20 435.822/435.867
DANDE 05 Aug 15:15:45 15:20:00 55° 80° (E) 15:25:45 436.750
Gurwin Techsat 1B 05 Aug 15:19:09 15:24:16 48° 261° (W) 15:29:25 435.225
Oscar 19 05 Aug 15:22:33 15:25:02 13° 271° (W) 15:27:12 437.125/150
KKS-1 05 Aug 15:22:43 15:25:56 20° 93° (E) 15:29:16 437.445
HORYU 2 05 Aug 15:26:31 15:29:57 23° 68° (ENE) 15:33:31 437.375
AO-7 05 Aug 15:43:36 15:51:42 58° 67° (ENE) 15:59:53 29.400- 29.500
BEESAT 05 Aug 15:51:20 15:55:37 33° 290° (WNW) 15:59:50 436.000
GONETS M04 05 Aug 15:57:17 16:03:33 22° 65° (ENE) 16:10:13
PCSat 05 Aug 16:03:51 16:04:37 10° 38° (NE) 16:05:39 145.827
SO-50 05 Aug 16:12:13 16:15:02 15° 40° (NE) 16:17:59 436.795
SWISSCUBE 05 Aug 16:13:24 16:16:49 19° 293° (WNW) 16:20:05 437.505
STARS 05 Aug 16:18:45 16:23:03 49° 99° (E) 16:27:22 437.465
VERMONT LUNAR 05 Aug 16:20:08 16:23:00 33° 154° (SSE) 16:25:54 437.305
Cosmos 2504 05 Aug 16:33:18 16:35:49 11° 283° (WNW) 16:37:34 435.465 / 435.565
JAS-2 05 Aug 16:33:29 16:39:14 37° 267° (W) 16:45:35 435.910
ITUPSAT 1 05 Aug 16:38:01 16:40:11 13° 296° (WNW) 16:42:08 437.325
CUSAT 1 05 Aug 16:44:12 16:47:11 15° 266° (W) 16:50:13 437.405
MOZHAYETS 4 05 Aug 16:49:29 16:52:59 22° 93° (E) 16:56:34
KKS-1 05 Aug 16:58:36 17:02:41 35° 289° (WNW) 17:06:43 437.445
DANDE 05 Aug 17:00:38 17:03:10 14° 265° (W) 17:05:42 436.750
HORYU 2 05 Aug 17:02:29 17:06:27 31° 264° (W) 17:10:24 437.375
CUTE-I 05 Aug 17:19:05 17:21:49 15° 63° (ENE) 17:24:48 437.470
AO-7 05 Aug 17:37:47 17:44:57 30° 265° (W) 17:51:56 29.400- 29.500
PCSat 05 Aug 17:43:55 17:49:17 61° 59° (ENE) 17:54:39 145.827
SO-50 05 Aug 17:51:19 17:56:17 84° 240° (WSW) 18:01:06 436.795
GONETS M04 05 Aug 17:52:43 18:01:26 75° 266° (W) 18:10:08
VERMONT LUNAR 05 Aug 17:56:25 17:59:35 72° 350° (N) 18:02:45 437.305
STARS 05 Aug 17:56:31 17:59:07 15° 294° (WNW) 18:01:34 437.465
PHONESAT 2.4 05 Aug 17:57:02 18:00:01 27° 151° (SSE) 18:03:03 2401.200-2431.200
Cosmos 2499 05 Aug 17:58:45 18:06:28 34° 70° (ENE) 18:14:22 435.465 / 435.565
Cubesat XI-IV 05 Aug 18:02:16 18:07:07 37° 70° (ENE) 18:12:02 437.490
MOZHAYETS 4 05 Aug 18:26:07 18:30:18 33° 289° (WNW) 18:34:23
ISS 05 Aug 18:43:14 18:45:32 18° 131° (SE) 18:47:55 145.825
CUTE-I 05 Aug 18:56:01 19:01:22 72° 258° (WSW) 19:06:44 437.470
CUBESAT XI-V 05 Aug 18:57:08 19:01:28 41° 98° (E) 19:05:49 437.345
PRISM 05 Aug 19:26:07 19:28:32 16° 92° (E) 19:31:06 437.425
PCSat 05 Aug 19:28:47 19:32:16 17° 254° (WSW) 19:35:30 145.827
VERMONT LUNAR 05 Aug 19:33:17 19:36:26 60° 5° (N) 19:39:35 437.305
PHONESAT 2.4 05 Aug 19:34:16 19:37:46 85° 341° (NNW) 19:41:18 2401.200-2431.200
DOVE 4 05 Aug 19:35:52 19:36:06 10° 65° (ENE) 19:36:36 437.250
HO-68 05 Aug 19:36:50 19:42:14 25° 61° (ENE) 19:47:51 435.675
Cubesat XI-IV 05 Aug 19:42:48 19:47:19 26° 266° (W) 19:51:43 437.490
CANX-2 05 Aug 19:44:19 19:45:56 12° 66° (ENE) 19:47:46 2200.000
Cosmos 2499 05 Aug 19:51:28 20:00:01 53° 269° (W) 20:08:25 435.465 / 435.565
STRAND 1 05 Aug 19:53:34 19:58:26 45° 99° (E) 20:03:18 437.568
GONETS M04 05 Aug 19:53:43 19:56:59 12° 282° (WNW) 19:59:31
RS-15 05 Aug 19:53:55 20:02:38 31° 106° (ESE) 20:11:55 29.354- 29.394
GOMX 1 05 Aug 20:08:52 20:12:48 42° 74° (ENE) 20:16:45 467.674
ISS 05 Aug 20:18:41 20:21:46 40° 326° (NW) 20:24:53 145.825
BRITE-PL 05 Aug 20:24:30 20:28:47 67° 258° (WSW) 20:32:56 437.365/2234.400
COMPASS 1 05 Aug 20:33:35 20:36:57 24° 70° (ENE) 20:40:24 437.405
CUBESAT XI-V 05 Aug 20:35:25 20:38:38 18° 293° (WNW) 20:41:42 437.345
CUBEBUG 2 05 Aug 20:39:13 20:40:02 11° 64° (ENE) 20:41:07 437.445
CINEMA 3 05 Aug 20:40:48 20:44:09 24° 70° (ENE) 20:47:40 145.822/145.860
SEEDS 05 Aug 20:56:30 21:00:40 57° 75° (ENE) 21:04:52 437.485
PRISM 05 Aug 21:00:21 21:04:09 36° 288° (WNW) 21:07:53 437.425
CUTE 1.7 + AOD 2 05 Aug 21:07:52 21:12:09 84° 258° (WSW) 21:16:28 437.475
DOVE 4 05 Aug 21:09:18 21:13:24 62° 260° (W) 21:17:32 437.250
AAUSAT CUBESAT 2 05 Aug 21:09:31 21:13:35 52° 75° (ENE) 21:17:43 437.432
VERMONT LUNAR 05 Aug 21:10:02 21:13:08 50° 202° (SSW) 21:16:12 437.305
ZACube-1 05 Aug 21:11:24 21:13:43 15° 66° (ENE) 21:16:15 437.345
PHONESAT 2.4 05 Aug 21:12:24 21:15:53 60° 3° (N) 21:19:23 2401.200-2431.200
CANX-2 05 Aug 21:17:11 21:21:24 57° 260° (W) 21:25:39 2200.000
HO-68 05 Aug 21:22:25 21:29:29 63° 258° (WSW) 21:36:35 435.675
FUNcube-1 05 Aug 21:29:34 21:32:51 23° 69° (ENE) 21:36:16 145.935
Oscar 11 05 Aug 21:32:15 21:36:19 41° 73° (ENE) 21:40:27 145.826/435.025
STRAND 1 05 Aug 21:33:34 21:37:21 21° 294° (WNW) 21:40:58 437.568
UWE-3 05 Aug 21:45:21 21:49:22 46° 74° (ENE) 21:53:33 435.000/436.395/437.385
GOMX 1 05 Aug 21:49:11 21:51:16 13° 270° (W) 21:53:09 467.674
DELFI C3 05 Aug 21:53:34 21:57:28 47° 74° (ENE) 22:01:24 145.870
ISS 05 Aug 21:57:49 21:58:55 11° 345° (NNW) 22:00:00 145.825
BEESAT 3 05 Aug 21:59:51 22:03:13 26° 113° (ESE) 22:06:42 437.485
Cosmos 2491 05 Aug 22:00:48 22:06:35 20° 63° (ENE) 22:12:47 435.465 / 435.565
AUBIESAT-1 05 Aug 22:01:52 22:03:55 13° 93° (E) 22:06:12 437.475
RS-15 05 Aug 22:03:19 22:14:12 69° 306° (NW) 22:25:30 29.354- 29.394
COMPASS 1 05 Aug 22:08:57 22:12:32 26° 265° (W) 22:16:04 437.405
AISAT 05 Aug 22:10:47 22:12:16 12° 65° (ENE) 22:14:00 437.250
DX 1 05 Aug 22:11:42 22:14:48 20° 68° (ENE) 22:18:02 434.975-435.025
CUBEBUG 2 05 Aug 22:12:01 22:16:11 65° 259° (W) 22:20:30 437.445
CINEMA 3 05 Aug 22:17:52 22:21:19 24° 266° (W) 22:24:47 145.822/145.860
SEEDS 05 Aug 22:35:35 22:36:53 11° 272° (W) 22:37:56 437.485
ZACube-1 05 Aug 22:45:39 22:49:42 45° 262° (W) 22:53:52 437.345
VELOX 1 05 Aug 22:45:42 22:49:23 27° 70° (ENE) 22:53:08 145.980
50 SAT 05 Aug 22:46:53 22:50:17 30° 71° (ENE) 22:53:46 437.505
HUMSAT D 05 Aug 22:47:54 22:52:02 74° 76° (ENE) 22:56:16 437.325/437.525
AAUSAT CUBESAT 2 05 Aug 22:47:57 22:49:35 12° 271° (W) 22:50:57 437.432
VERMONT LUNAR 05 Aug 22:48:55 22:49:22 10° 215° (SW) 22:49:44 437.305
UNISAT 6 05 Aug 22:49:05 22:52:24 19° 92° (E) 22:55:52 437.425
PHONESAT 2.4 05 Aug 22:50:25 22:53:55 67° 200° (SSW) 22:57:24 2401.200-2431.200
BEESAT 2 05 Aug 23:04:51 23:08:56 74° 302° (WNW) 23:13:04 435.950
FUNcube-1 05 Aug 23:05:23 23:09:03 28° 265° (W) 23:12:45 145.935
UKube-1 05 Aug 23:09:49 23:14:08 82° 75° (ENE) 23:18:28 .
Oscar 11 05 Aug 23:10:01 23:12:45 16° 269° (W) 23:15:17 145.826/435.025
M-CUBED/EXP-1 PRIME 05 Aug 23:10:16 23:15:04 88° 102° (ESE) 23:19:38 437.505
ESTCUBE 1 05 Aug 23:18:09 23:22:26 43° 73° (ENE) 23:26:45 437.505/2401.250
POLYITAN 1 05 Aug 23:18:58 23:21:04 14° 90° (E) 23:23:24 437.675
AIST 1 05 Aug 23:20:57 23:25:13 80° 262° (W) 23:29:28
UWE-3 05 Aug 23:24:04 23:26:16 13° 271° (W) 23:28:17 435.000/436.395/437.385
TIGRISAT 05 Aug 23:29:11 23:33:47 50° 99° (E) 23:38:22 435.000
DELFI C3 05 Aug 23:31:06 23:32:52 12° 270° (W) 23:34:23 145.870
POPSAT HIP 1 05 Aug 23:32:59 23:36:03 20° 93° (E) 23:39:14 437.405
ANTELSAT 05 Aug 23:33:20 23:38:00 58° 100° (E) 23:42:39 437.575/2403.000
AUBIESAT-1 05 Aug 23:34:27 23:39:07 60° 290° (WNW) 23:43:31 437.475
AIST 2 05 Aug 23:36:06 23:40:11 49° 116° (ESE) 23:44:19 435.215
BEESAT 3 05 Aug 23:37:37 23:41:07 26° 310° (NW) 23:44:35 437.485
CUBEBUG 1 05 Aug 23:41:08 23:45:27 65° 75° (ENE) 23:49:44 437.445
QB50P2 05 Aug 23:41:43 23:45:16 25° 95° (E) 23:48:53 145.880/145.840
AISAT 05 Aug 23:44:02 23:48:23 63° 259° (W) 23:52:45 437.250
DX 1 05 Aug 23:46:54 23:50:51 33° 263° (W) 23:54:47 434.975-435.025
TISAT 1 05 Aug 23:48:51 23:50:43 13° 66° (ENE) 23:52:47 437.305
Cosmos 2491 05 Aug 23:55:57 00:04:41 82° 265° (W) 00:13:24 435.465 / 435.565
SPROUT 05 Aug 23:56:48 00:00:21 27° 71° (ENE) 00:03:59 437.525
DUCHIFAT 1 05 Aug 23:59:40 00:03:37 38° 98° (E) 00:07:37 145.980
NANOSAT C BR1 06 Aug 00:06:03 00:10:09 46° 99° (E) 00:14:17 145.865
QB50P1 06 Aug 00:07:05 00:11:14 49° 99° (E) 00:15:23 145.935-145.965
YUBILEINY 06 Aug 00:12:44 00:21:13 62° 92° (E) 00:29:51 435.215
RS-15 06 Aug 00:20:43 00:29:21 24° 334° (NNW) 00:37:58 29.354- 29.394
50 SAT 06 Aug 00:22:12 00:24:55 18° 267° (W) 00:27:33 437.505
VELOX 1 06 Aug 00:22:15 00:25:54 25° 265° (W) 00:29:29 145.980
UNISAT 6 06 Aug 00:24:56 00:29:21 40° 288° (WNW) 00:33:43 437.425
PHONESAT 2.4 06 Aug 00:29:16 00:31:30 16° 214° (SSW) 00:33:40 2401.200-2431.200
BUGSAT 1 06 Aug 00:42:43 00:46:50 78° 101° (E) 00:50:58 437.445
M-CUBED/EXP-1 PRIME 06 Aug 00:47:40 00:49:08 11° 303° (WNW) 00:50:21 437.505
